Location: �perlecques
(50.8057°N, 2.1521°E)
Time: 19:07:49
(UTC+00:00)

Vanguard 3 - Pass Details

Date: 08 August 2021
Orbit: 510 x 3260 km, 33.3° (Epoch: 17 September)

Event Time Altitude Azimuth Distance (km) Brightness Sun altitude
Rises 20:18:52 0° 266° (W) 5,910 12.4 -8.1°
Reaches altitude 10° 20:22:58 10° 257° (WSW) 5,246 11.8 -8.6°
Maximum altitude 20:36:26 32° 203° (SSW) 4,429 10.7 -10.2°
Enters shadow 20:51:55 11° 151° (SSE) 6,083 11.0 -12.0°
